Location: Bonny Doon Airfield
(37.0704°N, 122.1252°W)
Time: 02:23:36
(UTC-07:00)

BREEZE M DEB (TANK) - Visible Passes

Search period start: 30 March 2015 00:00
Search period end: 09 April 2015 00:00
Orbit: 330 x 13794 km, 49.5° (Epoch: 29 March)

Date Brightness Start Highest point End Pass type
(mag) Time Alt. Az. Time Alt. Az. Time Alt. Az.
30 Mar 9.2 02:44:45 25° S 04:06:09 70° SE 05:19:26 10° NE visible
31 Mar 9.5 00:19:04 14° SE 01:06:41 31° ESE 02:33:42 10° NE visible
31 Mar 9.3 04:37:54 18° SW 06:32:11 82° NNW 07:19:10 10° ENE visible
01 Apr 9.2 02:11:56 29° S 03:19:43 63° ESE 04:39:17 10° NE visible
01 Apr 9.5 23:45:46 12° SE 00:23:51 24° ESE 01:50:19 10° NE visible
02 Apr 9.2 04:04:30 26° SSW 05:44:45 87° NW 06:39:39 10° ENE visible
03 Apr 9.3 01:38:06 31° SSE 02:33:49 56° ESE 03:58:37 10° NE visible
03 Apr 8.9 05:58:20 10° WSW 08:09:05 68° NNW 08:38:08 10° ENE visible
03 Apr 9.6 23:12:42 10° ESE 23:41:29 18° E 01:04:54 10° NE visible
04 Apr 9.2 03:30:10 33° SSW 04:56:33 87° SE 05:59:47 10° ENE visible
05 Apr 9.3 01:03:22 31° SE 01:48:34 49° ESE 03:17:21 10° NE visible
05 Apr 9.1 05:22:00 17° WSW 07:23:47 71° NNW 07:58:41 10° ENE visible
05 Apr 9.7 22:50:44 10° E 22:59:34 12° E 00:15:41 10° ENE visible
06 Apr 9.1 02:54:59 39° SSW 04:08:01 81° SE 05:19:32 10° NE visible
07 Apr 9.4 00:27:49 29° SE 01:03:59 41° ESE 02:35:22 10° NE visible
07 Apr 9.3 04:46:22 24° SW 06:37:00 74° NNW 07:18:54 10° ENE visible
08 Apr 9.1 02:19:00 42° S 03:19:40 74° SE 04:38:52 10° NE visible
